Ambler, AK

5:34 PM AKST on February 24, 2017 (GMT -0900)
Ambler

Weather History for PAFM - October, 2012

Change the Weather History Date:

Tuesday, October 16, 2012

  Actual Average Record
Temperature  
Mean Temperature 26 °F -  
Max Temperature 30 °F 22 °F 44 °F (2013)
Min Temperature 23 °F 14 °F -5 °F (2008)
Degree Days  
Heating Degree Days 38    
Moisture  
Dew Point 12 °F    
Average Humidity 53    
Maximum Humidity 59    
Minimum Humidity 47    
Precipitation  
Precipitation 0.00 in - - ()
Sea Level Pressure  
Sea Level Pressure 29.58 in    
Wind  
Wind Speed 16 mph (NNE)    
Max Wind Speed 22 mph    
Max Gust Speed 36 mph    
Visibility 10 miles    
Events      
Averages and records for this station are not official NWS values.
T = Trace of Precipitation, MM = Missing Value Source: NWS Daily Summary

Daily Weather History Graph

Daily Weather History Graph

Search for Another Location

Airport or City:

Trip Planner

Search our weather history database for the weather conditions in past years. The results will help you decide how hot, cold, wet, or windy it might be!

Date:

Astronomy

Oct. 16, 2012 Rise Set
Actual Time 9:37 AM AKDT 6:54 PM AKDT
Civil Twilight 8:42 AM AKDT 7:49 PM AKDT
Nautical Twilight 7:40 AM AKDT 8:51 PM AKDT
Astronomical Twilight 6:36 AM AKDT 9:54 PM AKDT
Moon 12:31 PM AKDT (10/16) 6:25 PM AKDT (10/16)
Length of Visible Light 11h 06m
Length of Day
9h 16m
Waxing Crescent, 3% of the Moon is Illuminated
Oct 16
Waxing Crescent
Oct 21
First Quarter
Oct 29
Full
Nov 6
Last Quarter
Nov 13
New

Hourly Weather History & Observations

Time (AKDT) Temp. Windchill Dew Point Humidity Pressure Visibility Wind Dir Wind Speed Gust Speed Precip Events Conditions
12:16 AM 23.0 °F 9.6 °F 8.6 °F 54% 29.42 in 10.0 mi North 16.1 mph 26.5 mph N/A   Overcast
12:36 AM 23.0 °F 10.1 °F 6.8 °F 50% 29.42 in 10.0 mi NNE 15.0 mph 24.2 mph N/A   Overcast
12:56 AM 23.0 °F 9.6 °F 8.6 °F 54% 29.42 in 10.0 mi North 16.1 mph 28.8 mph N/A   Overcast
1:16 AM 23.0 °F 11.1 °F 8.6 °F 54% 29.43 in 10.0 mi North 12.7 mph 25.3 mph N/A   Overcast
1:36 AM 24.8 °F 11.9 °F 8.6 °F 50% 29.43 in 10.0 mi North 16.1 mph 27.6 mph N/A   Overcast
1:56 AM 23.0 °F 10.1 °F 8.6 °F 54% 29.43 in 10.0 mi North 15.0 mph 25.3 mph N/A   Overcast
2:16 AM 24.8 °F 11.5 °F 8.6 °F 50% 29.44 in 10.0 mi North 17.3 mph 26.5 mph N/A   Overcast
2:36 AM 24.8 °F 11.5 °F 8.6 °F 50% 29.44 in 10.0 mi NNE 17.3 mph 28.8 mph N/A   Overcast
2:56 AM 23.0 °F 9.6 °F 8.6 °F 54% 29.45 in 10.0 mi North 16.1 mph 28.8 mph N/A   Overcast
3:16 AM 23.0 °F 9.2 °F 8.6 °F 54% 29.45 in 10.0 mi North 17.3 mph 27.6 mph N/A   Overcast
3:36 AM 23.0 °F 9.2 °F 8.6 °F 54% 29.45 in 10.0 mi NNE 17.3 mph 31.1 mph N/A   Overcast
3:56 AM 23.0 °F 9.6 °F 8.6 °F 54% 29.46 in 10.0 mi NNE 16.1 mph 26.5 mph N/A   Mostly Cloudy
4:16 AM 23.0 °F 9.2 °F 10.4 °F 59% 29.46 in 10.0 mi NNE 17.3 mph 26.5 mph N/A   Mostly Cloudy
4:36 AM 23.0 °F 9.2 °F 10.4 °F 59% 29.46 in 10.0 mi NNE 17.3 mph 27.6 mph N/A   Overcast
4:56 AM 24.8 °F 12.4 °F 10.4 °F 54% 29.47 in 10.0 mi NNE 15.0 mph 29.9 mph N/A   Overcast
5:16 AM 24.8 °F 11.9 °F 10.4 °F 54% 29.47 in 10.0 mi NNE 16.1 mph 29.9 mph N/A   Overcast
5:36 AM 24.8 °F 11.1 °F 10.4 °F 54% 29.47 in 10.0 mi North 18.4 mph 28.8 mph N/A   Overcast
5:56 AM 24.8 °F 12.4 °F 10.4 °F 54% 29.48 in 10.0 mi NNE 15.0 mph 28.8 mph N/A   Overcast
6:16 AM 24.8 °F 11.9 °F 10.4 °F 54% 29.48 in 10.0 mi NNE 16.1 mph 27.6 mph N/A   Overcast
6:36 AM 24.8 °F 11.1 °F 10.4 °F 54% 29.48 in 10.0 mi North 18.4 mph 31.1 mph N/A   Overcast
6:56 AM 24.8 °F 11.1 °F 10.4 °F 54% 29.49 in 10.0 mi North 18.4 mph 31.1 mph N/A   Overcast
7:16 AM 24.8 °F 12.9 °F 10.4 °F 54% 29.49 in 10.0 mi North 13.8 mph 25.3 mph N/A   Overcast
7:36 AM 24.8 °F 12.9 °F 12.2 °F 59% 29.50 in 10.0 mi North 13.8 mph 26.5 mph N/A   Overcast
7:56 AM 24.8 °F 11.1 °F 12.2 °F 59% 29.50 in 10.0 mi North 18.4 mph 28.8 mph N/A   Overcast
8:16 AM 24.8 °F 11.5 °F 12.2 °F 59% 29.51 in 10.0 mi North 17.3 mph 27.6 mph N/A   Overcast
8:36 AM 24.8 °F 11.9 °F 12.2 °F 59% 29.51 in 10.0 mi North 16.1 mph 27.6 mph N/A   Overcast
8:56 AM 26.6 °F 14.7 °F 10.4 °F 51% 29.52 in 10.0 mi North 15.0 mph 26.5 mph N/A   Overcast
9:16 AM 26.6 °F 13.8 °F 10.4 °F 51% 29.53 in 10.0 mi North 17.3 mph 25.3 mph N/A   Overcast
9:36 AM 26.6 °F 14.3 °F 10.4 °F 51% 29.54 in 10.0 mi North 16.1 mph 24.2 mph N/A   Overcast
9:56 AM 26.6 °F 14.3 °F 12.2 °F 55% 29.54 in 10.0 mi North 16.1 mph 26.5 mph N/A   Overcast
10:16 AM 26.6 °F 15.2 °F 10.4 °F 51% 29.55 in 10.0 mi North 13.8 mph 24.2 mph N/A   Overcast
10:36 AM 26.6 °F 15.2 °F 12.2 °F 55% 29.56 in 10.0 mi North 13.8 mph 25.3 mph N/A   Overcast
10:56 AM 26.6 °F 15.7 °F 12.2 °F 55% 29.56 in 10.0 mi North 12.7 mph 26.5 mph N/A   Overcast
11:16 AM 26.6 °F 14.3 °F 12.2 °F 55% 29.57 in 10.0 mi North 16.1 mph 24.2 mph N/A   Overcast
11:36 AM 26.6 °F 13.8 °F 12.2 °F 55% 29.57 in 10.0 mi North 17.3 mph 25.3 mph N/A   Overcast
11:56 AM 28.4 °F 17.5 °F 12.2 °F 51% 29.58 in 10.0 mi North 13.8 mph 20.7 mph N/A   Overcast
12:16 PM 28.4 °F 17.5 °F 12.2 °F 51% 29.58 in 10.0 mi NNE 13.8 mph 25.3 mph N/A   Overcast
12:36 PM 28.4 °F 16.2 °F 12.2 °F 51% 29.59 in 10.0 mi NNE 17.3 mph 25.3 mph N/A   Mostly Cloudy
1:16 PM 28.4 °F 16.2 °F 12.2 °F 51% 29.60 in 10.0 mi NNE 17.3 mph 25.3 mph N/A   Overcast
1:56 PM 30.2 °F 19.8 °F 12.2 °F 47% 29.61 in 10.0 mi NNE 13.8 mph 24.2 mph N/A   Overcast
2:16 PM 30.2 °F 19.3 °F 12.2 °F 47% 29.62 in 10.0 mi North 15.0 mph 26.5 mph N/A   Mostly Cloudy
2:36 PM 30.2 °F 18.1 °F 12.2 °F 47% 29.62 in 10.0 mi North 18.4 mph 27.6 mph N/A   Partly Cloudy
2:56 PM 30.2 °F 18.5 °F 12.2 °F 47% 29.63 in 10.0 mi North 17.3 mph 27.6 mph N/A   Scattered Clouds
3:16 PM 30.2 °F 17.8 °F 12.2 °F 47% 29.63 in 10.0 mi North 19.6 mph 26.5 mph N/A   Mostly Cloudy
3:36 PM 30.2 °F 17.8 °F 12.2 °F 47% 29.63 in 10.0 mi North 19.6 mph 25.3 mph N/A   Partly Cloudy
3:56 PM 30.2 °F 19.3 °F 12.2 °F 47% 29.64 in 10.0 mi North 15.0 mph 25.3 mph N/A   Clear
4:16 PM 28.4 °F 15.8 °F 12.2 °F 51% 29.65 in 10.0 mi NNE 18.4 mph 28.8 mph N/A   Clear
4:36 PM 28.4 °F 17.5 °F 12.2 °F 51% 29.65 in 10.0 mi NNE 13.8 mph 23.0 mph N/A   Mostly Cloudy
4:56 PM 28.4 °F 14.7 °F 12.2 °F 51% 29.66 in 10.0 mi NNE 21.9 mph 29.9 mph N/A   Overcast
5:16 PM 28.4 °F 17.5 °F 12.2 °F 51% 29.66 in 10.0 mi NNE 13.8 mph 27.6 mph N/A   Overcast
5:36 PM 28.4 °F 16.2 °F 14.0 °F 55% 29.67 in 10.0 mi NNE 17.3 mph 26.5 mph N/A   Overcast
5:56 PM 28.4 °F 15.1 °F 14.0 °F 55% 29.67 in 10.0 mi North 20.7 mph 28.8 mph N/A   Overcast
6:16 PM 28.4 °F 15.8 °F 14.0 °F 55% 29.68 in 10.0 mi North 18.4 mph 31.1 mph N/A   Overcast
6:36 PM 28.4 °F 17.5 °F 14.0 °F 55% 29.69 in 10.0 mi North 13.8 mph 31.1 mph N/A   Overcast
6:56 PM 28.4 °F 17.0 °F 14.0 °F 55% 29.70 in 10.0 mi North 15.0 mph 26.5 mph N/A   Overcast
7:16 PM 28.4 °F 16.6 °F 14.0 °F 55% 29.70 in 10.0 mi North 16.1 mph 26.5 mph N/A   Overcast
7:36 PM 28.4 °F 16.2 °F 14.0 °F 55% 29.71 in 10.0 mi North 17.3 mph 26.5 mph N/A   Overcast
7:56 PM 28.4 °F 18.0 °F 14.0 °F 55% 29.71 in 10.0 mi North 12.7 mph 21.9 mph N/A   Overcast
8:16 PM 28.4 °F 16.6 °F 14.0 °F 55% 29.72 in 10.0 mi North 16.1 mph 26.5 mph N/A   Overcast
8:36 PM 28.4 °F 17.0 °F 14.0 °F 55% 29.72 in 10.0 mi North 15.0 mph 25.3 mph N/A   Overcast
8:56 PM 28.4 °F 15.8 °F 14.0 °F 55% 29.72 in 10.0 mi North 18.4 mph 28.8 mph N/A   Overcast
9:16 PM 28.4 °F 16.2 °F 14.0 °F 55% 29.72 in 10.0 mi North 17.3 mph 31.1 mph N/A   Overcast
9:36 PM 28.4 °F 15.8 °F 14.0 °F 55% 29.72 in 10.0 mi NNE 18.4 mph 28.8 mph N/A   Overcast
9:56 PM 28.4 °F 15.1 °F 14.0 °F 55% 29.72 in 10.0 mi North 20.7 mph 29.9 mph N/A   Overcast
10:16 PM 28.4 °F 15.4 °F 14.0 °F 55% 29.73 in 10.0 mi North 19.6 mph 33.4 mph N/A   Overcast
10:36 PM 28.4 °F 14.7 °F 14.0 °F 55% 29.73 in 10.0 mi North 21.9 mph 31.1 mph N/A   Overcast
10:56 PM 28.4 °F 16.6 °F 14.0 °F 55% 29.74 in 10.0 mi NNE 16.1 mph 32.2 mph N/A   Overcast
11:16 PM 28.4 °F 15.4 °F 14.0 °F 55% 29.74 in 10.0 mi NNE 19.6 mph 34.5 mph N/A   Partly Cloudy
11:36 PM 28.4 °F 15.8 °F 14.0 °F 55% 29.74 in 10.0 mi NNE 18.4 mph 35.7 mph N/A   Clear
11:56 PM 28.4 °F 15.4 °F 14.0 °F 55% 29.75 in 10.0 mi North 19.6 mph 27.6 mph N/A   Clear